Weather History for KOKK - May, 2014

Change the Weather History Date:

Thursday, May 8, 2014

  Actual Average (KGUS) Record (KGUS)
Temperature  
Mean Temperature 76 °F -  
Max Temperature 87 °F 68 °F 89 °F (2007)
Min Temperature 64 °F 50 °F 46 °F (2006)
Cooling Degree Days 10    
Growing Degree Days 26 (Base 50)    
Moisture  
Dew Point 58 °F    
Average Humidity 52    
Maximum Humidity 73    
Minimum Humidity 38    
Precipitation  
Precipitation 0.00 in - - ()
Sea Level Pressure  
Sea Level Pressure 29.94 in    
Wind  
Wind Speed 15 mph (SSW)    
Max Wind Speed 26 mph    
Max Gust Speed 33 mph    
Visibility 10 miles    
Events      
Averages and records for this station are not official NWS values.
T = Trace of Precipitation, MM = Missing Value Source: NWS Daily Summary

Daily Weather History Graph

Daily Weather History Graph

Search for Another Location

Airport or City:

Trip Planner

Search our weather history database for the weather conditions in past years. The results will help you decide how hot, cold, wet, or windy it might be!

Date:

Astronomy

May. 08, 2014 Rise Set
Actual Time 5:34 AM CDT 7:47 PM CDT
Civil Twilight 5:04 AM CDT 8:17 PM CDT
Nautical Twilight 4:27 AM CDT 8:54 PM CDT
Astronomical Twilight 3:46 AM CDT 9:35 PM CDT
Moon 1:45 PM CDT (5/8) 2:07 AM CDT (5/8)
Length of Visible Light 15h 12m
Length of Day
14h 12m
Waxing Gibbous, 65% of the Moon is Illuminated
May 8
Waxing Gibbous
May 14
Full
May 21
Last Quarter
May 28
New
Jun 5
First Quarter

Hourly Weather History & Observations

Time (CDT) Temp. Heat Index Dew Point Humidity Pressure Visibility Wind Dir Wind Speed Gust Speed Precip Events Conditions
12:15 AM 69.8 °F - 53.6 °F 56% 29.91 in 10.0 mi SW 15.0 mph - N/A   Clear
12:35 AM 71.6 °F - 53.6 °F 53% 29.92 in 10.0 mi SW 19.6 mph 23.0 mph N/A   Clear
12:55 AM 71.6 °F - 53.6 °F 53% 29.92 in 10.0 mi SW 17.3 mph 23.0 mph N/A   Clear
1:15 AM 71.6 °F - 53.6 °F 53% 29.91 in 10.0 mi SW 12.7 mph - N/A   Clear
1:35 AM 69.8 °F - 53.6 °F 56% 29.92 in 10.0 mi SSW 13.8 mph - N/A   Clear
1:55 AM 69.8 °F - 53.6 °F 56% 29.92 in 10.0 mi South 10.4 mph - N/A   Clear
2:15 AM 68.0 °F - 53.6 °F 60% 29.92 in 10.0 mi SSW 10.4 mph - N/A   Clear
2:35 AM 68.0 °F - 53.6 °F 60% 29.92 in 10.0 mi SSW 10.4 mph - N/A   Clear
2:55 AM 69.8 °F - 53.6 °F 56% 29.92 in 10.0 mi SSW 10.4 mph - N/A   Clear
3:15 AM 69.8 °F - 53.6 °F 56% 29.93 in 10.0 mi SSW 9.2 mph - N/A   Clear
3:35 AM 68.0 °F - 55.4 °F 64% 29.93 in 10.0 mi SSW 11.5 mph - N/A   Clear
3:55 AM 68.0 °F - 55.4 °F 64% 29.93 in 10.0 mi SSW 12.7 mph 17.3 mph N/A   Clear
4:15 AM 68.0 °F - 55.4 °F 64% 29.93 in 10.0 mi SSW 17.3 mph - N/A   Clear
4:35 AM 66.2 °F - 55.4 °F 68% 29.93 in 10.0 mi South 12.7 mph - N/A   Clear
4:55 AM 66.2 °F - 53.6 °F 64% 29.94 in 10.0 mi South 9.2 mph - N/A   Clear
5:15 AM 64.4 °F - 53.6 °F 68% 29.93 in 10.0 mi South 9.2 mph - N/A   Clear
5:35 AM 64.4 °F - 55.4 °F 73% 29.94 in 10.0 mi South 10.4 mph - N/A   Clear
5:55 AM 64.4 °F - 55.4 °F 73% 29.96 in 10.0 mi SSW 9.2 mph - N/A   Clear
6:15 AM 66.2 °F - 55.4 °F 68% 29.96 in 10.0 mi SSW 9.2 mph - N/A   Clear
6:35 AM 66.2 °F - 57.2 °F 73% 29.96 in 10.0 mi SSW 10.4 mph - N/A   Clear
6:55 AM 68.0 °F - 55.4 °F 64% 29.96 in 10.0 mi SSW 13.8 mph - N/A   Clear
7:15 AM 69.8 °F - 57.2 °F 64% 29.96 in 10.0 mi SSW 12.7 mph 18.4 mph N/A   Clear
7:35 AM 71.6 °F - 57.2 °F 60% 29.97 in 10.0 mi SW 16.1 mph 23.0 mph N/A   Clear
7:55 AM 71.6 °F - 59.0 °F 64% 29.97 in 10.0 mi SW 16.1 mph - N/A   Clear
8:15 AM 73.4 °F - 59.0 °F 61% 29.98 in 10.0 mi SW 17.3 mph 23.0 mph N/A   Clear
8:35 AM 75.2 °F - 60.8 °F 61% 29.99 in 10.0 mi SW 20.7 mph 26.5 mph N/A   Clear
8:55 AM 75.2 °F - 60.8 °F 61% 29.98 in 10.0 mi WSW 19.6 mph 26.5 mph N/A   Clear
9:15 AM 77.0 °F - 60.8 °F 57% 29.97 in 10.0 mi SW 20.7 mph 26.5 mph N/A   Clear
9:35 AM 78.8 °F - 60.8 °F 54% 29.97 in 10.0 mi SW 20.7 mph 24.2 mph N/A   Clear
9:55 AM 78.8 °F - 60.8 °F 54% 29.97 in 10.0 mi SW 16.1 mph 21.9 mph N/A   Clear
10:15 AM 80.6 °F 81.5 °F 60.8 °F 51% 29.97 in 10.0 mi SW 17.3 mph 24.2 mph N/A   Clear
10:35 AM 80.6 °F 81.5 °F 60.8 °F 51% 29.97 in 10.0 mi SW 17.3 mph - N/A   Clear
10:55 AM 82.4 °F 82.9 °F 60.8 °F 48% 29.98 in 10.0 mi WSW 18.4 mph - N/A   Clear
11:15 AM 82.4 °F 82.9 °F 60.8 °F 48% 29.97 in 10.0 mi WSW 16.1 mph - N/A   Clear
11:35 AM 84.2 °F 84.4 °F 60.8 °F 45% 29.96 in 10.0 mi SW 15.0 mph 20.7 mph N/A   Clear
11:55 AM 84.2 °F 84.4 °F 60.8 °F 45% 29.96 in 10.0 mi SSW 20.7 mph 25.3 mph N/A   Clear
12:15 PM 84.2 °F 84.4 °F 60.8 °F 45% 29.95 in 10.0 mi SW 17.3 mph - N/A   Clear
12:35 PM 84.2 °F 84.4 °F 60.8 °F 45% 29.94 in 10.0 mi SSW 18.4 mph 24.2 mph N/A   Clear
12:55 PM 86.0 °F 86.1 °F 60.8 °F 43% 29.94 in 10.0 mi SSW 18.4 mph 24.2 mph N/A   Clear
1:15 PM 86.0 °F 86.1 °F 60.8 °F 43% 29.94 in 10.0 mi South 21.9 mph 27.6 mph N/A   Clear
1:35 PM 87.8 °F 87.6 °F 60.8 °F 40% 29.94 in 10.0 mi SW 18.4 mph 25.3 mph N/A   Clear
1:55 PM 87.8 °F 87.6 °F 60.8 °F 40% 29.93 in 10.0 mi South 18.4 mph 28.8 mph N/A   Clear
2:15 PM 87.8 °F 87.6 °F 60.8 °F 40% 29.92 in 10.0 mi SSW 18.4 mph 25.3 mph N/A   Clear
2:35 PM 87.8 °F 87.6 °F 60.8 °F 40% 29.92 in 10.0 mi SSW 21.9 mph 29.9 mph N/A   Clear
2:55 PM 87.8 °F 87.6 °F 60.8 °F 40% 29.91 in 10.0 mi SSW 19.6 mph 24.2 mph N/A   Clear
3:15 PM 87.8 °F 87.1 °F 59.0 °F 38% 29.91 in 10.0 mi SSW 17.3 mph 23.0 mph N/A   Clear
3:35 PM 87.8 °F 87.6 °F 60.8 °F 40% 29.90 in 10.0 mi SW 23.0 mph 28.8 mph N/A   Clear
3:55 PM 87.8 °F 87.1 °F 59.0 °F 38% 29.90 in 10.0 mi SSW 20.7 mph 26.5 mph N/A   Clear
4:15 PM 87.8 °F 87.1 °F 59.0 °F 38% 29.91 in 9.0 mi SSW 23.0 mph 28.8 mph N/A   Clear
4:35 PM 87.8 °F 87.1 °F 59.0 °F 38% 29.90 in 10.0 mi SSW 21.9 mph 27.6 mph N/A   Clear
4:55 PM 86.0 °F 86.1 °F 60.8 °F 43% 29.90 in 10.0 mi SSW 20.7 mph 28.8 mph N/A   Clear
5:15 PM 86.0 °F 86.1 °F 60.8 °F 43% 29.91 in 10.0 mi SSW 19.6 mph 28.8 mph N/A   Partly Cloudy
5:35 PM 86.0 °F 85.4 °F 59.0 °F 40% 29.91 in 10.0 mi SW 21.9 mph 29.9 mph N/A   Partly Cloudy
5:55 PM 84.2 °F 83.5 °F 57.2 °F 40% 29.92 in 10.0 mi SSW 26.5 mph 33.4 mph N/A   Clear
6:15 PM 84.2 °F 83.5 °F 57.2 °F 40% 29.91 in 10.0 mi SSW 19.6 mph 31.1 mph N/A   Clear
6:35 PM 82.4 °F 82.0 °F 57.2 °F 42% 29.92 in 10.0 mi SSW 20.7 mph 26.5 mph N/A   Clear
6:55 PM 82.4 °F 81.7 °F 55.4 °F 39% 29.92 in 10.0 mi SSW 16.1 mph 21.9 mph N/A   Clear
7:15 PM 80.6 °F 80.8 °F 57.2 °F 45% 29.93 in 10.0 mi SSW 20.7 mph 25.3 mph N/A   Clear
7:35 PM 80.6 °F 80.8 °F 57.2 °F 45% 29.93 in 10.0 mi SW 19.6 mph 27.6 mph N/A   Clear
7:55 PM 78.8 °F - 57.2 °F 47% 29.93 in 10.0 mi SSW 16.1 mph 23.0 mph N/A   Clear
8:15 PM 78.8 °F - 57.2 °F 47% 29.93 in 10.0 mi SSW 12.7 mph - N/A   Clear
8:35 PM 77.0 °F - 57.2 °F 50% 29.94 in 10.0 mi SSW 15.0 mph - N/A   Clear
8:55 PM 77.0 °F - 57.2 °F 50% 29.94 in 10.0 mi SSW 15.0 mph - N/A   Clear
9:15 PM 77.0 °F - 57.2 °F 50% 29.95 in 10.0 mi SSW 15.0 mph - N/A   Clear
9:35 PM 75.2 °F - 57.2 °F 53% 29.95 in 10.0 mi SSW 10.4 mph - N/A   Clear
9:55 PM 75.2 °F - 57.2 °F 53% 29.95 in 10.0 mi SSW 13.8 mph - N/A   Clear
10:15 PM 75.2 °F - 57.2 °F 53% 29.94 in 10.0 mi SSW 13.8 mph - N/A   Clear
10:35 PM 75.2 °F - 57.2 °F 53% 29.93 in 10.0 mi South 13.8 mph - N/A   Clear
10:55 PM 73.4 °F - 57.2 °F 57% 29.93 in 10.0 mi SSW 12.7 mph - N/A   Clear
11:15 PM 73.4 °F - 57.2 °F 57% 29.93 in 10.0 mi SSW 15.0 mph - N/A   Clear
11:35 PM 73.4 °F - 57.2 °F 57% 29.92 in 10.0 mi SSW 13.8 mph - N/A   Clear
11:55 PM 73.4 °F - 57.2 °F 57% 29.92 in 10.0 mi SSW 15.0 mph 19.6 mph N/A   Clear